Dewpoint
55 55 55 55 55 54 54 53 53 53 54 55 55 56 55 55 55 55 54 54 53 53 54 54 54 54 54 54 54 53 52 52 49 49 49 50 51 51 50 52 52 51 51
56 56 56 55 55 54 54 53 52 52 53 54 55 55 55 55 55 55 55 55 54 54 54 53 53 53 54 54 53 53 52 52 51 48 48 48 50 51 51 51 51 51 51
55 56 55 55 55 54 54 52 51 51 51 53 54 54 55 55 55 54 54 54 54 54 54 54 53 53 53 53 53 52 52 52 51 50 49 49 50 52 51 51 51 51 52
54 55 54 54 55 55 55 54 52 51 50 51 52 53 53 54 55 55 55 54 54 54 54 54 53 53 53 52 52 52 52 51 51 51 51 51 51 51 51 50 50 51 51
54 54 54 54 55 54 54 54 55 53 52 50 50 51 52 53 53 54 54 54 54 54 53 53 54 54 53 53 52 52 52 51 51 51 50 50 50 50 49 50 50 50 51
54 54 54 54 54 54 54 54 54 54 54 53 52 51 50 51 51 50 53 53 53 53 52 52 53 51 51 50 50 51 51 50 50 50 49 48 48 49 49 49 49 49 48
45 45 46 50 53 54 54 54 54 54 54 54 54 54 53 53 50 49 49 51 51 52 52 52 52 52 51 51 49 47 47 47 48 50 49 49 49 50 50 49 49 49 49
38 38 40 41 43 44 46 47 50 52 54 54 54 54 54 39 36 38 42 48 51 52 52 52 52 52 52 51 51 50 49 47 39 42 43 41 36 34 38 42 42 37 33
33 33 35 36 37 38 38 39 42 45 43 38 37 38 38 34 34 35 37 43 48 51 50 36 36 39 37 38 43 47 45 30 31 31 31 30 30 30 32 36 35 37 33
30 30 31 32 33 34 35 36 37 37 34 33 31 31 31 31 32 33 35 40 42 38 32 32 32 33 33 35 39 41 34 29 28 28 27 27 28 28 28 27 29 29 27
29 29 29 30 30 31 31 32 33 32 31 29 28 28 28 30 30 31 33 33 33 31 30 29 30 31 31 31 32 33 30 29 28 26 25 25 25 24 25 25 25 25 22
27 27 27 28 28 29 29 29 30 30 29 28 27 27 27 28 29 29 29 29 29 27 26 27 27 27 26 26 27 27 26 26 24 22 21 21 21 21 23 23 23 23 23
26 26 26 26 27 27 28 28 27 27 27 27 26 26 26 27 27 27 27 26 25 25 25 24 23 23 22 23 22 22 22 22 20 18 18 18 19 21 22 23 23 22 20
25 24 24 24 25 25 25 26 27 27 26 25 25 25 25 25 25 25 25 24 23 22 21 20 20 19 18 19 19 19 20 19 19 18 18 18 19 18 17 19 18 18 14
24 24 23 22 22 22 24 24 24 26 25 24 24 24 23 23 25 25 23 21 20 20 18 18 17 16 16 16 16 16 16 16 15 16 16 16 15 13 11 12 13 12 11
22 23 23 22 22 20 19 20 23 24 24 25 24 24 25 24 23 23 22 21 19 17 16 15 14 14 14 14 14 13 13 13 13 13 13 12 11 10 8 8 9 8 7
21 21 20 19 19 18 17 16 14 16 19 20 21 21 23 21 21 20 20 18 17 14 13 13 13 13 13 13 12 12 11 10 9 9 9 10 9 8 7 6 7 7 6
17 16 16 16 15 14 14 14 13 12 11 12 14 17 18 18 18 17 15 12 11 11 11 10 10 11 10 10 9 8 7 6 5 5 5 6 7 7 6 5 4 5 4
17 15 15 14 14 13 13 12 11 10 9 9 9 9 10 12 12 12 10 8 7 7 7 7 7 8 7 7 6 5 4 3 2 2 2 3 4 4 4 4 4 4 3
15 16 15 14 13 12 11 10 9 8 7 6 6 6 6 5 4 5 5 4 4 5 5 5 4 4 4 4 2 2 1 1 0 1 1 -0 1 3 2 1 2 2 3
14 13 14 13 12 12 10 9 8 7 6 5 4 5 4 3 3 3 3 2 2 2 2 2 2 1 2 0 0 -2 -4 -4 -4 -3 -3 -2 -2 -1 -1 -1 -0 1 2
12 13 12 11 10 8 8 7 6 5 5 3 3 2 1 1 1 1 -0 -1 -1 0 -0 -1 -0 0 -0 -1 -3 -5 -6 -7 -7 -7 -6 -5 -4 -4 -3 -2 -1 -1 -0
9 9 9 8 8 6 5 5 4 3 2 1 1 -0 -1 -2 -2 -2 -2 -2 -1 -2 -2 -2 -1 -1 -3 -5 -5 -5 -5 -5 -5 -7 -6 -6 -5 -5 -5 -3 -2 -2 -2
6 6 6 5 4 3 2 2 3 3 2 0 -1 -3 -3 -4 -5 -4 -4 -3 -3 -3 -3 -3 -2 -1 -2 -4 -5 -3 -3 -5 -6 -6 -8 -7 -6 -6 -5 -4 -4 -4 -3
3 3 2 2 1 0 -0 -0 -1 -1 -1 -1 -2 -2 -3 -3 -5 -7 -7 -6 -4 -4 -4 -3 -3 -2 -2 -2 -3 -3 -4 -5 -7 -8 -8 -8 -8 -9 -7 -6 -6 -4 -4
2 1 1 1 -0 -2 -2 -2 -2 -2 -2 -3 -5 -5 -6 -6 -7 -8 -7 -5 -5 -5 -4 -4 -5 -5 -4 -2 -1 -2 -4 -5 -7 -8 -9 -7 -8 -8 -9 -8 -6 -5 -4
Wind_Speed
15 13 12 11 12 14 15 15 15 13 13 15 16 17 17 19 18 19 17 15 19 19 16 17 21 21 19 16 19 19 19 17 20 15 18 17 16 22 24 21 21 21 23
15 14 14 15 14 12 13 14 15 17 15 16 15 16 17 17 16 18 18 16 18 19 19 22 24 20 23 24 20 20 20 21 22 26 26 24 21 21 21 22 22 20 21
15 14 12 14 15 15 13 13 15 15 16 15 16 17 17 17 17 17 18 17 18 20 20 22 25 23 24 22 21 21 21 22 22 20 26 24 22 17 20 18 22 21 19
15 15 15 14 13 14 15 14 15 17 17 17 17 18 17 15 15 15 17 17 18 19 21 22 23 23 25 24 21 22 22 21 20 20 22 25 23 24 19 23 24 19 23
13 14 15 14 14 11 12 13 14 15 16 18 19 18 17 17 17 18 18 19 21 20 20 21 23 26 29 28 23 23 21 21 23 25 26 26 26 25 27 25 25 25 26
9 10 9 10 11 12 12 12 13 13 13 13 15 15 17 17 19 24 23 22 22 24 26 25 24 27 30 32 35 39 35 29 28 28 29 29 29 28 27 26 27 25 30
17 14 15 12 2 4 7 11 13 16 16 17 16 16 17 16 12 24 29 25 23 23 24 24 24 21 24 26 29 36 39 41 43 38 34 30 31 28 25 28 25 26 29
19 16 16 14 12 12 11 12 8 5 9 13 15 16 17 12 16 12 8 20 22 24 24 25 24 26 25 23 25 26 25 19 8 10 15 13 8 7 8 10 7 2 8
19 17 16 15 14 14 14 13 12 10 12 15 14 15 14 15 21 18 13 7 14 19 11 17 12 9 14 16 13 17 6 14 19 23 23 21 23 24 16 4 3 9 4
18 16 15 16 16 16 15 14 13 13 14 14 18 19 20 16 24 22 14 5 3 7 14 15 20 14 15 13 8 7 9 11 16 15 14 19 20 22 24 16 8 10 8
16 16 17 16 17 15 15 16 15 15 16 17 18 18 19 22 22 26 23 15 12 15 16 18 20 24 25 27 22 13 11 13 17 18 15 17 17 20 20 20 19 15 14
16 18 18 19 17 16 17 17 17 14 16 16 16 16 16 16 25 26 29 26 20 20 17 16 18 28 32 31 27 29 27 18 17 20 20 18 18 18 16 17 20 21 19
17 17 17 17 18 19 20 18 16 16 15 15 14 14 14 13 14 20 26 26 25 22 18 22 25 25 26 27 34 29 23 18 18 21 18 15 15 13 12 12 13 17 19
16 17 17 21 20 20 20 20 18 16 15 14 14 14 15 15 14 14 14 15 17 17 17 19 19 21 24 22 21 22 20 18 18 16 14 12 12 13 14 12 10 8 13
15 14 14 15 17 22 25 20 21 22 17 15 16 14 13 16 17 18 15 15 14 13 16 18 19 19 19 19 19 19 17 17 17 14 13 12 12 12 12 11 12 12 12
14 13 12 12 12 13 16 21 29 29 30 27 23 17 16 20 19 19 20 20 19 15 18 17 16 15 16 14 15 15 15 15 14 13 12 12 12 12 11 12 12 12 11
13 11 11 13 13 12 13 12 13 16 27 27 26 25 23 18 18 19 21 24 21 18 19 15 14 13 13 13 13 13 13 12 11 13 12 11 10 10 11 11 11 10 9
15 17 14 13 13 14 14 14 12 13 14 15 19 22 23 22 21 17 16 18 18 20 16 15 14 13 13 13 13 12 12 12 12 12 11 11 9 9 9 9 9 8 7
13 13 13 13 14 14 13 14 13 14 14 12 11 12 15 18 21 24 22 18 15 15 13 14 12 12 12 11 11 11 11 12 11 11 11 10 10 9 8 8 7 9 8
14 15 14 13 13 14 13 13 12 12 13 13 14 14 12 12 18 17 17 15 15 13 12 12 12 11 11 11 12 11 11 12 11 10 10 9 9 8 8 7 7 6 6
12 12 12 12 12 12 11 12 11 12 12 13 13 13 15 15 14 14 13 14 13 12 13 11 12 12 11 11 10 11 12 10 10 9 8 7 8 6 5 5 5 5 6
10 10 11 12 11 12 11 11 11 12 11 12 12 14 15 14 13 12 13 13 12 11 10 11 10 9 9 9 9 10 10 11 10 9 8 7 6 6 5 4 5 5 5
11 12 12 11 11 12 13 12 13 14 14 13 12 12 12 13 12 10 10 10 10 11 9 9 9 8 8 9 8 8 8 7 6 5 8 8 6 6 5 4 4 4 5
12 13 12 12 12 13 13 12 11 11 11 11 11 11 11 10 10 9 8 8 9 9 9 8 6 5 5 5 5 5 5 4 4 4 3 5 6 6 4 3 4 4 4
13 14 13 12 12 12 12 11 10 9 9 7 8 7 6 6 7 7 6 7 7 8 7 8 7 5 4 4 4 4 4 5 5 5 3 3 5 5 4 4 4 4 4
11 11 10 9 10 9 10 9 8 6 5 4 4 4 4 4 3 3 4 5 6 6 6 6 6 6 6 6 4 1 5 7 8 7 4 3 5 5 4 4 5 4 5
Wind_Direction
174 170 169 181 173 178 185 183 181 174 171 175 178 186 188 191 191 196 199 195 201 200 202 215 226 228 233 240 237 233 224 219 241 250 264 258 231 238 243 239 238 236 242
166 167 172 174 184 184 184 188 182 190 185 183 183 191 197 194 189 196 202 203 211 217 215 220 229 230 229 230 223 223 226 226 231 247 255 257 245 240 241 245 245 242 242
171 180 180 169 178 188 190 190 192 192 195 190 191 198 198 198 199 203 207 208 212 219 220 222 226 224 228 229 228 231 234 237 241 248 254 257 254 249 249 250 253 257 251
171 179 192 200 191 184 189 192 193 196 196 198 200 207 207 205 204 205 211 218 221 224 226 229 232 233 235 238 236 238 241 244 245 245 248 255 257 258 252 258 262 251 255
176 185 198 201 205 204 206 199 193 190 195 198 203 207 207 209 212 214 214 220 224 229 228 228 231 233 233 233 236 243 239 240 244 248 250 252 255 258 254 258 258 264 261
187 202 213 205 206 213 217 219 221 222 220 211 211 212 213 215 217 217 216 222 227 233 239 239 238 239 240 237 234 237 245 246 245 250 254 253 251 250 257 257 258 263 271
73 56 47 48 163 237 234 215 216 225 227 224 222 221 227 228 242 230 227 228 233 236 241 245 248 246 244 243 245 244 246 246 244 249 253 250 255 255 258 259 254 253 256
57 50 41 44 46 39 44 39 21 326 256 232 229 229 235 54 22 8 319 243 243 244 245 245 244 250 248 249 246 246 244 258 309 265 265 291 337 333 279 269 281 92 71
49 46 41 38 45 46 38 27 22 36 39 47 43 46 68 46 19 9 350 297 261 261 305 43 14 335 332 329 299 275 278 93 64 76 87 78 57 44 40 58 339 248 248
42 39 40 47 47 48 41 35 39 58 65 68 58 52 48 40 24 21 13 351 328 80 57 49 35 21 5 336 295 278 140 121 104 80 54 43 42 53 49 48 66 106 116
45 42 41 44 49 46 47 43 46 62 72 68 65 55 48 40 34 36 39 54 77 77 65 53 44 44 47 53 44 58 84 97 94 90 77 62 57 51 43 44 43 61 84
53 46 40 41 43 46 52 48 49 53 63 63 66 59 47 43 46 48 54 60 67 76 67 59 59 58 58 57 62 64 65 61 66 61 61 47 50 50 52 55 58 64 62
55 55 49 50 51 50 51 49 49 47 54 58 61 60 52 44 46 49 60 64 67 74 73 71 64 59 57 54 56 55 56 59 64 66 62 55 50 43 44 52 63 77 69
61 59 58 57 53 51 55 51 50 49 57 60 62 63 61 53 47 44 50 55 59 64 62 58 60 59 57 55 52 49 52 54 60 64 61 54 49 44 42 35 46 64 67
67 64 64 67 66 67 62 59 60 54 59 62 58 60 63 64 59 68 70 69 68 67 70 59 54 54 54 51 51 48 46 48 51 47 50 50 52 50 43 31 39 48 61
63 56 55 61 69 71 75 73 64 65 63 63 66 66 63 70 70 71 72 73 75 78 71 69 65 61 61 59 59 56 50 49 45 48 46 46 44 43 44 40 43 50 56
59 60 52 53 54 58 61 65 73 54 58 57 56 58 60 65 66 70 71 72 65 66 68 60 60 55 57 57 55 55 57 53 55 55 53 48 50 50 46 43 42 48 52
59 58 61 61 63 64 65 65 64 61 56 43 39 46 55 56 56 56 62 62 53 50 55 54 52 51 50 51 52 55 55 50 47 49 49 47 48 58 57 55 49 43 43
59 63 67 69 69 70 66 65 64 64 62 53 35 34 33 56 60 57 58 65 67 58 50 52 49 52 54 61 62 64 62 60 56 52 47 43 40 54 54 47 47 46 39
58 61 64 66 65 65 64 69 67 65 62 54 46 31 26 48 48 44 47 54 60 59 56 56 47 44 48 53 56 57 60 51 45 43 41 39 37 50 52 44 33 32 30
59 60 62 63 62 64 65 68 67 69 68 63 54 45 52 66 59 54 52 51 54 56 58 58 51 51 52 58 64 65 63 55 43 35 29 22 27 35 25 36 27 24 24
67 68 65 68 69 71 70 71 75 78 76 74 64 55 56 62 64 64 63 60 59 60 57 64 59 54 53 63 69 67 58 48 35 25 14 7 10 12 11 15 19 27 24
66 73 70 68 73 74 74 72 78 78 78 76 73 71 66 68 68 67 62 59 64 58 50 55 59 64 63 68 65 61 56 45 33 25 17 10 5 1 360 1 12 17 16
66 70 76 75 79 81 80 79 78 81 85 91 91 86 82 78 75 66 61 51 49 42 38 43 50 79 83 60 44 40 48 48 31 11 358 349 347 348 348 347 352 348 351
72 75 77 83 88 90 88 85 87 88 90 98 107 105 94 85 73 53 39 36 36 34 34 38 43 52 31 7 3 18 31 30 20 7 353 352 341 329 332 329 338 336 348
73 81 87 94 98 101 99 95 88 85 83 84 111 119 110 93 73 44 28 35 39 41 38 28 15 359 347 341 339 42 8 360 354 349 338 332 337 340 337 328 335 341 344